Shungnak AP, Shungnak, AK, AK

1:18 PM AKST on December 14, 2019 (GMT -0900)
Shungnak AP, Shungnak, AK

Weather History for PAGH - October, 2019

Change the Weather History Date:

Thursday, October 3, 2019

  Actual Average (WUND) Record (WUND)
Temperature  
Mean Temperature 36 °F -  
Max Temperature 39 °F - - (-1)
Min Temperature 33 °F - - (-1)
Degree Days  
Heating Degree Days 29    
Moisture  
Dew Point 35 °F    
Average Humidity 93    
Maximum Humidity 100    
Minimum Humidity 86    
Precipitation  
Precipitation 0.05 in - - ()
Sea Level Pressure  
Sea Level Pressure 29.84 in    
Wind  
Wind Speed 14 mph (ESE)    
Max Wind Speed 22 mph    
Max Gust Speed 28 mph    
Visibility 10 miles    
Events Rain    
Averages and records for this station are not official NWS values.
T = Trace of Precipitation, MM = Missing Value Source: NWS Daily Summary

Daily Weather History Graph

Daily Weather History Graph

Search for Another Location

Airport or City:

Astronomy

Oct. 03, 2019 Rise Set
Actual Time 8:47 AM AKDT 7:46 PM AKDT
Civil Twilight 7:54 AM AKDT 8:39 PM AKDT
Nautical Twilight 6:51 AM AKDT 9:41 PM AKDT
Astronomical Twilight 5:42 AM AKDT 10:49 PM AKDT
Moon 5:28 PM AKDT (10/3) 8:33 PM AKDT (10/3)
Length of Visible Light 12h 44m
Length of Day
10h 59m
Waxing Crescent, 31% of the Moon is Illuminated
Oct 3
Waxing Crescent
Oct 5
First Quarter
Oct 13
Full
Oct 21
Last Quarter
Oct 27
New

Hourly Weather History & Observations

Time (AKDT) Temp. Windchill Dew Point Humidity Pressure Visibility Wind Dir Wind Speed Gust Speed Precip Events Conditions
12:56 AM 34.0 °F 24.2 °F 33.1 °F 96% 29.85 in 9.0 mi East 15.0 mph - 0.03 in   Overcast
1:56 AM 34.0 °F 24.6 °F 33.1 °F 96% 29.86 in 10.0 mi East 13.8 mph - 0.01 in Rain Light Rain
2:09 AM 33.8 °F 23.5 °F 33.8 °F 100% 29.84 in 10.0 mi East 16.1 mph - 0.00 in Rain Light Rain
2:37 AM 33.8 °F 24.3 °F 33.8 °F 100% 29.84 in 10.0 mi East 13.8 mph - 0.00 in Rain Light Rain
2:56 AM 35.1 °F 25.5 °F 33.1 °F 92% 29.86 in 10.0 mi East 15.0 mph - 0.00 in   Overcast
3:28 AM 35.6 °F 25.9 °F 33.8 °F 93% 29.84 in 10.0 mi ESE 16.1 mph - N/A   Overcast
3:56 AM 35.1 °F 25.5 °F 33.1 °F 92% 29.86 in 10.0 mi ESE 15.0 mph - N/A   Overcast
4:56 AM 35.1 °F 24.8 °F 34.0 °F 96% 29.87 in 7.0 mi ESE 17.3 mph - 0.00 in Rain Light Rain
5:56 AM 35.1 °F 26.4 °F 34.0 °F 96% 29.88 in 6.0 mi ESE 12.7 mph - 0.00 in Rain Light Rain
6:56 AM 35.1 °F 26.9 °F 34.0 °F 96% 29.88 in 10.0 mi East 11.5 mph - 0.01 in   Overcast
7:56 AM 35.1 °F 26.4 °F 34.0 °F 96% 29.88 in 10.0 mi ESE 12.7 mph - N/A   Overcast
8:56 AM 35.1 °F 27.4 °F 34.0 °F 96% 29.89 in 10.0 mi ESE 10.4 mph - N/A   Overcast
9:56 AM 35.1 °F 27.4 °F 34.0 °F 96% 29.89 in 10.0 mi ESE 10.4 mph - N/A   Overcast
10:54 AM 35.6 °F 27.1 °F 33.8 °F 93% 29.88 in 10.0 mi ESE 12.7 mph - N/A   Overcast
10:56 AM 35.1 °F 26.9 °F 34.0 °F 96% 29.90 in 10.0 mi ESE 11.5 mph - N/A   Overcast
11:56 AM 36.0 °F 28.5 °F 35.1 °F 97% 29.90 in 10.0 mi ESE 10.4 mph - N/A   Overcast
12:56 PM 37.9 °F 29.6 °F 35.1 °F 89% 29.90 in 10.0 mi ESE 13.8 mph - N/A   Overcast
1:56 PM 37.9 °F 29.6 °F 36.0 °F 93% 29.90 in 10.0 mi ESE 13.8 mph - N/A   Overcast
2:56 PM 39.9 °F 31.8 °F 36.0 °F 86% 29.89 in 10.0 mi ESE 15.0 mph - N/A   Overcast
3:56 PM 39.9 °F 31.8 °F 36.0 °F 86% 29.88 in 10.0 mi ESE 15.0 mph 20.7 mph N/A   Overcast
4:56 PM 39.9 °F 32.5 °F 37.0 °F 89% 29.87 in 10.0 mi ESE 12.7 mph 20.7 mph N/A   Overcast
5:34 PM 39.2 °F 31.2 °F 37.4 °F 93% 29.84 in 10.0 mi ESE 13.8 mph - 0.00 in Rain Light Rain
5:43 PM 39.2 °F 31.6 °F 37.4 °F 93% 29.84 in 10.0 mi ESE 12.7 mph - 0.00 in Rain Light Rain
5:56 PM 39.9 °F 32.5 °F 37.0 °F 89% 29.86 in 10.0 mi ESE 12.7 mph - 0.00 in Rain Light Rain
6:16 PM 39.2 °F 30.5 °F 37.4 °F 93% 29.83 in 10.0 mi ESE 16.1 mph 20.7 mph 0.00 in   Overcast
6:28 PM 39.2 °F 31.2 °F 37.4 °F 93% 29.82 in 10.0 mi ESE 13.8 mph - 0.00 in   Overcast
6:37 PM 39.2 °F 30.5 °F 37.4 °F 93% 29.82 in 10.0 mi ESE 16.1 mph - 0.00 in   Overcast
6:56 PM 39.0 °F 30.6 °F 37.0 °F 93% 29.83 in 10.0 mi ESE 15.0 mph 23.0 mph 0.00 in Rain Light Rain
7:05 PM 39.2 °F 30.2 °F 37.4 °F 93% 29.81 in 10.0 mi East 17.3 mph 21.9 mph 0.00 in Rain Light Rain
7:34 PM 39.2 °F 30.8 °F 37.4 °F 93% 29.80 in 10.0 mi East 15.0 mph - 0.00 in   Overcast
7:44 PM 39.2 °F 30.8 °F 37.4 °F 93% 29.79 in 10.0 mi East 15.0 mph - 0.00 in   Overcast
7:56 PM 39.0 °F 30.3 °F 37.0 °F 93% 29.81 in 10.0 mi ESE 16.1 mph - 0.00 in   Overcast
8:56 PM 39.0 °F 30.6 °F 36.0 °F 89% 29.78 in 10.0 mi ESE 15.0 mph - N/A   Overcast
9:56 PM 39.0 °F 29.9 °F 36.0 °F 89% 29.75 in 10.0 mi ESE 17.3 mph 27.6 mph N/A   Overcast
10:56 PM 39.0 °F 29.9 °F 36.0 °F 89% 29.71 in 10.0 mi East 17.3 mph 25.3 mph 0.00 in   Overcast
11:56 PM 39.0 °F 28.8 °F 37.0 °F 93% 29.67 in 10.0 mi East 21.9 mph 26.5 mph 0.00 in Rain Light Rain